Home   Weather   Traralgon   Past weeks

Flag for Australia Past Weather in Traralgon, Victoria, Australia — Yesterday and Last 2 Weeks

Now
53 °F

Overcast.


Feels Like: 47 °F
Forecast: 38 / 58 °F
Wind: 23 mph from West

Location: Latrobe Valley Airport

Current Time: Jul 26, 2017 at 10:53:13 am

Latest Report: Jul 26, 2017 at 9:00 am


Visibility: N/A

Pressure: 29.94 "Hg

Humidity: 75%

Dew Point: 45 °F

Location of TraralgonLocation

Past Weather in Traralgon — Graph

°F

Traralgon Temperature Yesterday

Maximum temperature yesterday: 67 °F (at 2:00 pm)
Minimum temperature yesterday: 34 °F (at 6:00 am)
Average temperature yesterday: 50 °F

High & Low Weather Summary for the Past Weeks

 TemperatureHumidityPressure
High67 °F (Jul 25, 2:00 pm)96% (Jul 12, 8:00 am)30.58 "Hg (Jul 12, 8:00 am)
Low26 °F (Jul 22, 6:00 am)38% (Jul 25, 2:00 pm)29.67 "Hg (Jul 18, 2:00 pm)
Average45 °F80%30.04 "Hg
* Reported Jul 11 9:00 am — Jul 26 9:00 am, Traralgon. Weather by CustomWeather, © 2017

Note: Actual official high and low records may vary slightly from our data, if they occured in-between our weather recording intervals... More about our weather records

Advertising

Traralgon Weather History for the Previous 24 Hours

Scroll right to see more
 ConditionsComfort  
Time TempWeatherWind HumidityBarometerVisibility
9:00 am
Wed, Jul 26
53 °FOvercast.23 mph75%29.94 "HgN/A
8:00 am51 °FCool.17 mph80%29.93 "HgN/A
6:00 am50 °FOvercast.18 mph83%29.88 "HgN/A
5:00 am53 °FCool.17 mph69%29.86 "HgN/A
3:00 am53 °FOvercast.18 mph63%29.87 "HgN/A
2:00 am53 °FCool.20 mph64%29.88 "HgN/A
12:00 am51 °FCool.12 mph78%29.88 "HgN/A
11:00 pm
Tue, Jul 25
51 °FCool.10 mph87%29.88 "HgN/A
9:00 pm51 °FFog.12 mph88%29.88 "Hg4 mi
8:00 pm50 °FCool.6 mph87%29.89 "HgN/A
6:00 pm57 °FPassing clouds.7 mph56%29.85 "HgN/A
5:00 pm59 °FRefreshingly cool.10 mph54%29.84 "HgN/A
3:00 pm67 °FMild.20 mph40%29.83 "HgN/A
2:00 pm67 °FMild.23 mph38%29.84 "HgN/A
12:00 pm63 °FOvercast.6 mph54%29.93 "HgN/A
11:00 am61 °FRefreshingly cool.15 mph54%29.98 "HgN/A
Weather by CustomWeather, © 2017

See weather overviewHow to use our weather pages